Weather History for Martha's Vineyard, MA

Change the Weather History Date:

Saturday, January 11, 2014

  Actual Average Record
Temperature  
Mean Temperature 50 °F -  
Max Temperature 57 °F 37 °F 57 °F (2014)
Min Temperature 44 °F 21 °F 3 °F (1968)
Degree Days  
Heating Degree Days 14    
Moisture  
Dew Point 51 °F    
Average Humidity 93    
Maximum Humidity 100    
Minimum Humidity 86    
Precipitation  
Precipitation 0.72 in - - ()
Sea Level Pressure  
Sea Level Pressure 29.72 in    
Wind  
Wind Speed 15 mph (South)    
Max Wind Speed 33 mph    
Max Gust Speed 45 mph    
Visibility 4 miles    
Events Fog , Rain    
Averages and records for this station are not official NWS values.
T = Trace of Precipitation, MM = Missing Value Source: NWS Daily Summary

Daily Weather History Graph

Daily Weather History Graph

Search for Another Location

Airport:

Trip Planner

Search our weather history database for the weather conditions in past years. The results will help you decide how hot, cold, wet, or windy it might be!

Date:

Astronomy

Jan. 11, 2014 Rise Set
Actual Time 7:07 AM EST 4:33 PM EST
Civil Twilight 6:36 AM EST 5:04 PM EST
Nautical Twilight 6:02 AM EST 5:38 PM EST
Astronomical Twilight 5:29 AM EST 6:11 PM EST
Moon 1:15 PM EST (1/11) 3:08 AM EST (1/11)
Length of Visible Light 10h 27m
Length of Day
9h 25m
Waxing Gibbous, 83% of the Moon is Illuminated
Jan 11
Waxing Gibbous
Jan 15
Full
Jan 24
Last Quarter
Jan 30
New
Feb 6
First Quarter

Hourly Weather History & Observations

Time (EST) Temp. Windchill Dew Point Humidity Pressure Visibility Wind Dir Wind Speed Gust Speed Precip Events Conditions
12:18 AM 44.6 °F 43.1 °F 42.8 °F 93% 30.27 in 0.5 mi South 3.5 mph - N/A Fog Fog
12:39 AM 44.6 °F 40.7 °F 42.8 °F 93% 30.26 in 1.0 mi South 6.9 mph - N/A   Overcast
12:53 AM 46.0 °F 42.5 °F 44.1 °F 93% 30.25 in 1.2 mi South 6.9 mph - 0.00 in   Overcast
1:06 AM 46.4 °F 42.4 °F 44.6 °F 93% 30.25 in 3.0 mi South 8.1 mph - N/A   Overcast
1:53 AM 46.9 °F - 46.0 °F 97% 30.25 in 5.0 mi South 4.6 mph - N/A   Overcast
2:53 AM 46.9 °F - 45.0 °F 93% 30.22 in 5.0 mi South 6.9 mph - 0.00 in   Overcast
3:53 AM 46.9 °F - 44.1 °F 90% 30.19 in 6.0 mi South 6.9 mph - N/A   Overcast
4:04 AM 46.4 °F 42.4 °F 44.6 °F 93% 30.19 in 7.0 mi South 8.1 mph - N/A   Overcast
4:53 AM 48.9 °F - 46.9 °F 93% 30.16 in 10.0 mi South 15.0 mph - N/A   Overcast
5:53 AM 50.0 °F - 46.9 °F 89% 30.13 in 10.0 mi South 16.1 mph 21.9 mph N/A   Overcast
6:53 AM 48.9 °F - 45.0 °F 86% 30.10 in 10.0 mi South 16.1 mph - 0.00 in Rain Light Rain
7:53 AM 48.9 °F - 46.0 °F 90% 30.06 in 9.0 mi SSE 15.0 mph - 0.00 in   Overcast
8:53 AM 50.0 °F - 46.9 °F 89% 30.03 in 9.0 mi SSE 15.0 mph 23.0 mph N/A   Overcast
9:44 AM 51.8 °F - 48.2 °F 88% 29.98 in 7.0 mi South 21.9 mph 27.6 mph 0.00 in Rain Light Rain
9:53 AM 52.0 °F - 48.9 °F 89% 29.98 in 7.0 mi South 19.6 mph 27.6 mph 0.00 in Rain Light Rain
10:07 AM 51.8 °F - 48.2 °F 88% 29.97 in 6.0 mi South 17.3 mph 28.8 mph 0.00 in Rain Light Rain
10:14 AM 51.8 °F - 48.2 °F 88% 29.96 in 6.0 mi South 17.3 mph 25.3 mph 0.00 in Rain Light Rain
10:53 AM 53.1 °F - 50.0 °F 89% 29.91 in 7.0 mi South 19.6 mph 29.9 mph 0.00 in   Scattered Clouds
11:53 AM 55.0 °F - 51.1 °F 86% 29.85 in 8.0 mi South 23.0 mph 32.2 mph 0.00 in Rain Light Rain
12:53 PM 54.0 °F - 50.0 °F 86% 29.80 in 7.0 mi South 20.7 mph 29.9 mph 0.00 in   Overcast
1:10 PM 53.6 °F - 50.0 °F 88% 29.77 in 6.0 mi South 19.6 mph 29.9 mph N/A   Overcast
1:51 PM 55.4 °F - 51.8 °F 88% 29.73 in 2.5 mi South 25.3 mph 38.0 mph 0.05 in Rain Rain
1:53 PM 55.0 °F - 52.0 °F 89% 29.73 in 2.5 mi South 27.6 mph 38.0 mph 0.06 in Rain Light Rain
2:03 PM 55.4 °F - 53.6 °F 94% 29.73 in 3.0 mi South 23.0 mph 34.5 mph 0.01 in Rain Light Rain
2:11 PM 55.4 °F - 53.6 °F 94% 29.72 in 2.5 mi South 24.2 mph 35.7 mph 0.02 in Rain Light Rain
2:27 PM 57.2 °F - 55.4 °F 94% 29.71 in 1.5 mi South 26.5 mph 39.1 mph 0.08 in Rain Heavy Rain
2:44 PM 57.2 °F - 55.4 °F 94% 29.69 in 2.0 mi South 26.5 mph 34.5 mph 0.12 in   Overcast
2:53 PM 55.9 °F - 55.0 °F 97% 29.68 in 2.0 mi South 19.6 mph 32.2 mph 0.13 in Rain Light Rain
3:18 PM 53.6 °F - 51.8 °F 94% 29.65 in 1.0 mi South 20.7 mph 31.1 mph 0.03 in Rain Light Rain
3:53 PM 54.0 °F - 52.0 °F 93% 29.62 in 0.5 mi South 23.0 mph 33.4 mph 0.03 in Fog , Rain Light Rain
4:13 PM 53.6 °F - 51.8 °F 94% 29.61 in 1.2 mi South 20.7 mph 33.4 mph 0.07 in Rain Light Rain
4:23 PM 53.6 °F - 51.8 °F 94% 29.60 in 0.5 mi South 23.0 mph 33.4 mph 0.07 in Fog Fog
4:40 PM 55.4 °F - 53.6 °F 94% 29.59 in 2.0 mi South 21.9 mph 33.4 mph 0.07 in Rain Light Rain
4:53 PM 55.0 °F - 53.1 °F 93% 29.58 in 2.0 mi South 21.9 mph 35.7 mph 0.07 in   Overcast
5:00 PM 55.4 °F - 53.6 °F 94% 29.57 in 0.8 mi South 26.5 mph 33.4 mph N/A   Overcast
5:53 PM 55.0 °F - 53.1 °F 93% 29.52 in 0.8 mi South 24.2 mph 36.8 mph N/A   Mist
6:01 PM 55.4 °F - 53.6 °F 94% 29.51 in 1.0 mi South 25.3 mph 34.5 mph N/A   Mist
6:36 PM 55.4 °F - 53.6 °F 94% 29.48 in 0.8 mi South 28.8 mph 40.3 mph N/A   Mist
6:53 PM 55.9 °F - 54.0 °F 93% 29.47 in 0.8 mi South 26.5 mph 44.9 mph 0.00 in Rain Light Rain
7:12 PM 55.4 °F - 55.4 °F 100% 29.44 in 1.2 mi South 27.6 mph 41.4 mph 0.00 in   Overcast
7:32 PM 57.2 °F - 55.4 °F 94% 29.42 in 2.0 mi South 31.1 mph 42.6 mph 0.06 in Rain Heavy Rain
7:46 PM 57.2 °F - 55.4 °F 94% 29.41 in 5.0 mi South 33.4 mph 43.7 mph 0.10 in Rain Light Rain
7:53 PM 57.0 °F - 55.0 °F 93% 29.40 in 5.0 mi South 28.8 mph 44.9 mph 0.10 in   Overcast
8:30 PM 57.2 °F - 55.4 °F 94% 29.42 in 1.8 mi SSW 31.1 mph 41.4 mph 0.16 in Rain Heavy Rain
8:44 PM 57.2 °F - 55.4 °F 94% 29.43 in 2.5 mi SW 19.6 mph 44.9 mph 0.27 in Rain Light Rain
8:51 PM 55.4 °F - 55.4 °F 100% 29.43 in 5.0 mi WSW 11.5 mph 31.1 mph 0.28 in Rain Rain
8:53 PM 55.9 °F - 55.0 °F 97% 29.43 in 5.0 mi WSW 10.4 mph 31.1 mph 0.28 in Rain Rain
9:53 PM 52.0 °F - 51.1 °F 97% 29.45 in 6.0 mi SW 12.7 mph - 0.02 in Rain Light Rain
10:37 PM 51.8 °F - 50.0 °F 94% 29.44 in 4.0 mi SW 11.5 mph - 0.02 in Rain Light Rain
10:43 PM 50.0 °F - 50.0 °F 100% 29.41 in 1.8 mi South 12.7 mph - 0.02 in Rain Light Rain
10:48 PM 48.2 °F - 48.2 °F 100% 29.41 in 1.0 mi South 10.4 mph - 0.02 in   Overcast
10:53 PM 48.9 °F - 48.9 °F 100% 29.41 in 0.8 mi South 9.2 mph - 0.02 in   Overcast
11:00 PM 50.0 °F - 48.2 °F 94% 29.42 in 0.8 mi SSW 8.1 mph - N/A   Mist
11:10 PM 50.0 °F - 50.0 °F 100% 29.40 in 1.8 mi South 9.2 mph - 0.00 in Rain Light Rain
11:17 PM 50.0 °F - 50.0 °F 100% 29.40 in 3.0 mi SSW 10.4 mph - 0.01 in Rain Light Rain
11:40 PM 51.8 °F - 51.8 °F 100% 29.37 in 9.0 mi South 13.8 mph - 0.01 in   Overcast
11:53 PM 51.1 °F - 51.1 °F 100% 29.37 in 8.0 mi South 13.8 mph - 0.01 in   Overcast